Regional Weather Roundup
Issued by NWS Lake Charles, LA

Home | Current Version | Previous Version | Text Only | Print | Product List | Glossary On
Versions: 1 2 3 4 5 6 7 8 9 10 11 12 13 14 15 16 17 18 19 20 21 22 23 24 25 26 27 28 29 30 31 32 33 34 35 36 37 38 39 40 41 42 43 44 45 46 47 48 49 50
000
ASUS44 KLCH 250610
RWRLCH
REGIONAL WEATHER ROUNDUP
NATIONAL WEATHER SERVICE LAKE CHARLES LA
100 AM CDT MON SEP 25 2017

Note: "fair" indicates few or no clouds below 12,000 feet with no
significant weather and/or obstructions to visibility.


ACROSS SOUTHEAST TEXAS

CITY           SKY/WX    TMP DP  RH WIND       PRES   REMARKS
BEAUMONT       CLEAR     73  71  93 CALM      29.88F
BEAUMONT CITY  FAIR      73  71  92 CALM      29.89S
ORANGE         CLEAR     71  71 100 CALM      29.90F
JASPER         CLEAR     72  71  97 CALM      29.93S
$$

ACROSS CENTRAL LOUISIANA

CITY           SKY/WX    TMP DP  RH WIND       PRES   REMARKS
LEESVILLE      CLEAR     73  69  90 CALM      29.91S
FULLERTON      FAIR      70  69  97 CALM      29.90S
ALEXANDRIA INT MOCLDY    72  69  90 E5        29.91S
ESLER FIELD    CLEAR     68  68 100 CALM      29.93S
DERIDDER       FAIR      74  73  95 CALM      29.93S
OAKDALE        CLEAR     68  67  94 CALM      29.92S FOG
OPELOUSAS      FAIR      69  69  98 CALM      29.92R
$$

ACROSS SOUTHWEST AND SOUTH CENTRAL LOUISIANA

CITY           SKY/WX    TMP DP  RH WIND       PRES   REMARKS
SULPHUR        CLEAR     73  72  96 NE3       29.91S
LAKE CHARLES   CLEAR     73  71  93 CALM      29.89F
CHENNAULT INT    N/A     72  70  94 CALM      29.90F
CAMERON PHI      N/A     75  72  88 E6        29.88S
DEQUINCY       FAIR      70  69  96 CALM      29.91S
JENNINGS       FAIR      73  69  88 E5        29.90S
LAFAYETTE      CLEAR     74  71  91 CALM      29.91S
NEW IBERIA     CLEAR     73  69  87 E3        29.91S
ABBEVILLE        N/A     72  72 100 CALM      29.91S
PATTERSON      NOT AVBL
SALT POINT       N/A     74  72  93 CALM      29.88F
$$

SELECTED SITES ACROSS THE REGION

CITY           SKY/WX    TMP DP  RH WIND       PRES   REMARKS
HOUSTON BUSH   CLEAR     74  72  93 E7        29.87F
HOUSTON HOBBY  PTCLDY    78  73  84 CALM      29.87F
GALVESTON      PTCLDY    83  76  79 E10       29.87F
COLLEGE STAT   CLEAR     75  70  84 SE7       29.88S
CONROE         CLEAR     72  70  93 E3        29.89S
HUNTSVILLE     CLEAR     78  70  76 VRB5      29.89F
LUFKIN         CLEAR     71  70  96 CALM      29.89F
SHREVEPORT     CLEAR     71  69  93 SE3       29.90F
MONROE         CLEAR     74  68  81 SE3       29.94S
NATCHEZ MS     CLEAR     71  67  87 SE3       29.95S
BATON ROUGE    CLEAR     71  67  87 CALM      29.92F
N.O. INTL ARPT PTCLDY    77  70  79 E3        29.90F
SLIDELL        CLEAR     68  65  90 N3        29.91F
$$

MARINE REPORTS

STATION/POSITION TIME  SKY/WX   TEMP    WIND        PRES    VSBY
                                AIR SEA DIR/SP/G
                 (UTC)          (F)     (DEG/KT/KT) (MB)    (MI)
BUOY 30 S HIGH I NOT AVBL
SEA RIM ST PARK  0500            82     130/  9/ 11 1012.6F
PORT ARTHUR      0530            80 83  100/  4/  6 1012.2F
SABINE PASS N    0524            82 85  100/  8/ 10 1013.5
TEXAS POINT      NOT AVBL
CALCASIEU PASS   0530            76 86   80/  7/  8 1011.0F
LK CHARLES BEACH 0530            76 81              1012.0F
MARSH ISLAND     0500            81                   N/A
FRESH WATER LOCK 0530            79 87  100/  7/  9 1012.1F
AMERADA PASS     0530            75 82   50/  3/  5 1012.3S
$$



USA.gov is the U.S. government's official web portal to all federal, state and local government web resources and services.